Showing default

ASTROCAST-0404, 55112

Orbit data source: Space-Track

ASTROCAST-0404, 55112 is a payload satellite owned by Astrocast (CH) in SSO that was launched on Tue, 03 Jan 2023 UTC via an FALCON 9 launch vehicle from the Air Force Eastern Test Range (AFETR). Payload-class satellites include a variety of spacecraft equipped with specific instruments for various scientific and technological missions. These include communications satellites like Starlink; space stations such as the ISS; scientific satellites like the Hubble; Earth observation satellites from companies like Planet Labs, Umbra, and HawkEye 360; GPS; miniature CubeSats for education and research; and military/defense satellites.

Loading next visibility...
Identifier
55112, 2023-001DH
Orbit
SSO
Country
Flag of UnknownUnknown / SWTZ
Related business
Manufacturer
Astrocast
Mission
Operational Commercial Communications
Bus & Motor
CUBESAT 3U, Unknown motor
Mass
4.5 kg wet, 4.5 kg dry
Launch date (UTC)
2023-01-03 (3 years ago)
Launch vehicle
FALCON 9
Launch site
Air Force Eastern Test Range (AFETR)
Object type
Payload
Rocket body
Debris
Shape & HBR
Box, 0.1 m
Radar Cross Section
0.035 m², Medium (>0.1 m² and < 1m²)

Expand to show TLE details & history
Last TLE update: 16 hours ago

TLE from 16 hours ago
0 ASTROCAST-0404
1 55112U 23001DH  25346.76518789  .00010711  00000-0  43559-3 0  9990
2 55112  97.5744  73.4663 0005990 299.9774  60.0868 15.24706451116091
Epoch: 2025-12-12T18:21Z
TLE epoch observation values (Epoch: 2025-12-12T18:21:52.233Z)
Latitude
-0.00006°
Longitude
76.29655°
Altitude
492.708 km
Speed
7.62 km/s
True Right ascension
04h 53m 51s
True Declination
0° 00' 00"
Sunlit
Object was in full shadow at epoch
Visualization orbit readout
Latitude
Unknown
Longitude
Unknown
Altitude
Unknown
Speed
Unknown
Apparent Right ascension
Unknown
Apparent Declination
Unknown
Sunlit
N/A
Visualization observer readout
Local Sidereal Time
08:41:29
Azimuth
Unknown
Elevation
Unknown
Doppler factor
Unknown
Orbital elements
Apogee altitude
492.747 km
Perigee altitude
484.521 km
Semi-major axis
6,866.771 km
Eccentricity
0.0006
Inclination
97.5744°
RAAN
73.4663°
Arg. of periapsis
299.9774°
True anomaly
60.14632°
Mean anomaly
60.0868°
Eccentric anomaly
60.11656°
Mean motion
3.8143 °/min
Orbital period
94.38 mins
BSTAR
0.00043559
Loading maneuver chart data...
Computing Atmospheric mass density...
Loading historical data...
Loading historical data...
Loading historical data...
Loading historical data...
Loading historical data...
Loading historical data...
Loading historical data...

Documentation

Showing up to 5 results
|